EHI
0 0 0 0 0 0 0 0 0 0 0 0 0 0 0 0 0 0 0 0 0 0 0 0 0 0 0 0 0 0 0 0 0 0 0 0 0 0 0 0 0 0 0 0
0 0 0 0 0 0 0 0 0 0 0 0 0 0 0 0 0 0 0 0 0 0 0 0 0 0 0 0 0 0 0 0 0 0 0 0 0 0 0 0 0 0 0 0
0 0 0 0 0 0 0 0 0 0 0 0 0 0 0 0 0 0 0 0 0 0 0 0 0 0 0 0 0 0 0 0 0 0 0 0 0 0 0 0 0 0 0 0
0 0 0 0 0 0 0 0 0 0 0 0 0 0 0 0 0 0 0 0 0 0 0 0 0 0 0 0 0 0 0 0 0 0 0 0 0 0 0 0 0 0 0 0
0 0 0 0 0 0 0 0 0 0 0 0 0 0 0 0 0 0 0 0 0 0 0 0 0 0 0 0 0 0 0 0 0 0 0 0 0 0 0 0 0 0 0 0
0 0 0 0 0 0 0 0 0 0 0 0 0 0 0 0 0 0 0 0 0 0 0 0 0 0 0 0 0 0 0 0 0 0 0 0 0 0 0 0 0 0 0 0
0 0 0 0 0 0 0 0 0 0 0 0 0 0 0 0 0 0 0 0 0 0 0 0 0 0 0 0 0 0 0 0 0 0 0 0 0 0 0 0 0 0 0 0
0 0 0 0 0 0 0 0 0 0 0 0 0 0 0 0 0 0 0 0 0 0 0 0 0 0 0 0 0 0 0 0 0 0 0 0 0 0 0 0 0 0 0 0
0 0 0 0 0 0 0 0 0 0 0 0 0 0 0 0 0 0 0 0 0 0 0 0 0 0 0 0 0 0 0 0 0 0 0 0 0 0 0 0 0 0 0 0
0 0 0 0 0 0 0 0 0 0 0 0 0 0 0 0 0 0 0 0 0 0 0 0 0 0 0 0 0 0 0 0 0 0 0 0 0 0 0 0 0 0 0 0
0 0 0 0 0 0 0 0 0 0 0 0 0 0 0 0 0 0 0 0 0 0 0 0 0 0 0 0 0 0 0 0 0 0 0 0 0 0 0 0 0 0 0 0
0 0 0 0 0 0 0 0 0 0 0 0 0 0 0 0 0 0 0 0 0 0 0 0 0 0 0 0 0 0 0 0 0 0 0 0 0 0 0 0 0 0 0 0
0 0 0 0 0 0 0 0 0 0 0 0 0 0 0 0 0 0 0 0 0 0 0 0 0 0 0 0 0 0 0 0 0 0 0 0 0 0 0 0 0 0 0 0
0 0 0 0 0 0 0 0 0 0 0 0 0 0 0 0 0 0 0 0 0 0 0 0 0 0 0 0 0 0 0 0 0 0 0 0 0 0 0 0 0 0 0 0
0 0 0 0 0 0 0 0 0 0 0 0 0 0 0 0 0 0 0 0 0 0 0 0 0 0 0 0 0 0 0 0 0 0 0 0 0 0 0 0 0 0 0 0
0 0 0 0 0 0 0 0 0 0 0 0 0 0 0 0 0 0 0 0 0 0 0 0 0 0 0 0 0 0 0 0 0 0 0 0 0 0 0 0 0 0 0 0
0 0 0 0 0 0 0 0 0 0 0 0 0 0 0 0 0 0 0 0 0 0 0 0 0 0 0 0 0 0 0 0 0 0 0 0 0 0 0 0 0 0 0 0
0 0 0 0 0 0 0 0 0 0 0 0 0 0 0 0 0 0 0 0 0 0 0 0 0 0 0 0 0 0 0 0 0 0 0 0 0 0 0 0 0 0 0 0
0 0 0 0 0 0 0 0 0 0 0 0 0 0 0 0 0 0 0 0 0 0 0 0 0 0 0 0 0 0 0 0 0 0 0 0 0 0 0 0 0 0 0 0
0 0 0 0 0 0 0 0 0 0 0 0 0 0 0 0 0 0 0 0 0 0 0 0 0 0 0 0 0 0 0 0 0 0 0 0 0 0 0 0 0 0 0 0
0 0 0 0 0 0 0 0 0 0 0 0 0 0 0 0 0 0 0 0 0 0 0 0 0 0 0 0 0 0 0 0 0 0 0 0 0 0 0 0 0 0 0 0
0 0 0 0 0 0 0 0 0 0 0 0 0 0 0 0 0 0 0 0 0 0 0 0 0 0 0 0 0 0 0 0 0 0 0 0 0 0 0 0 0 0 0 0
0 0 0 0 0 0 0 0 0 0 0 0 0 0 0 0 0 0 0 0 0 0 0 0 0 0 0 0 0 0 0 0 0 0 0 0 0 0 0 0 0 0 0 0
0 0 0 0 0 0 0 0 0 0 0 0 0 0 0 0 0 0 0 0 0 0 0 0 0 0 0 0 0 0 0 0 0 0 0 0 0 0 0 0 0 0 0 0
0 0 0 0 0 0 0 0 0 0 0 0 0 0 0 0 0 0 0 0 0 0 0 0 0 0 0 0 0 0 0 0 0 0 0 0 0 0 0 0 0 0 0 0
0 0 0 0 0 0 0 0 0 0 0 0 0 0 0 0 0 0 0 0 0 0 0 0 0 0 0 0 0 0 0 0 0 0 0 0 0 0 0 0 0 0 0 0
0 0 0 0 0 0 0 0 0 0 0 0 0 0 0 0 0 0 0 0 0 0 0 0 0 0 0 0 0 0 0 0 0 0 0 0 0 0 0 0 0 0 0 0
Wind_Speed
3 2 3 5 6 9 8 8 8 8 8 14 14 14 12 7 6 8 9 10 10 10 9 9 9 9 9 8 8 7 5 4 3 3 6 7 9 9 10 11 12 12 13 13
1 1 3 5 8 10 9 8 10 10 14 15 12 8 6 5 6 7 9 10 10 10 10 9 9 9 9 9 8 7 7 7 7 8 9 10 11 12 12 13 13 13 13 13
2 4 3 7 10 13 8 8 9 12 13 11 10 9 6 4 4 6 7 8 8 8 8 8 8 8 8 8 8 9 9 9 10 11 12 11 12 13 13 13 13 13 12 13
1 3 4 6 2 8 8 7 9 9 11 10 9 6 2 0 2 4 5 5 6 6 7 7 7 7 7 7 8 9 9 10 10 11 12 12 13 13 12 11 11 11 12 12
1 3 7 8 3 7 6 5 8 12 14 11 4 3 2 1 1 1 2 3 4 5 5 6 6 6 6 7 8 9 9 9 9 10 11 11 12 11 10 10 11 10 10 10
2 2 5 4 1 3 4 3 4 6 8 6 1 2 2 2 2 1 2 2 3 4 5 6 6 6 7 7 8 8 8 8 9 9 10 11 11 10 9 9 9 9 9 8
4 4 8 7 2 3 2 3 3 3 5 4 5 4 3 4 2 1 2 3 4 5 6 6 6 6 8 8 8 8 8 9 10 10 10 10 9 9 9 9 9 9 9 7
5 6 9 3 5 5 4 3 3 3 3 4 4 3 4 4 3 2 2 3 4 5 6 6 6 6 8 8 7 8 9 10 10 9 8 8 9 8 7 8 8 7 7 7
8 9 5 2 5 5 3 4 4 3 3 3 4 5 5 5 4 3 3 3 4 5 5 6 6 6 7 6 6 7 9 9 9 9 8 7 7 7 6 5 5 5 5 5
5 7 6 7 7 6 4 5 4 4 4 5 5 5 6 6 5 4 3 3 4 5 5 5 5 6 5 5 6 7 9 7 7 7 7 6 5 5 5 4 4 4 4 3
5 5 5 4 2 3 4 4 4 3 3 5 6 6 7 6 6 5 4 3 4 5 5 5 5 5 5 5 6 7 7 6 6 6 6 6 6 5 5 3 4 4 3 2
5 3 2 6 6 4 5 6 5 4 3 3 6 6 7 6 6 6 5 5 5 5 5 5 5 5 4 5 5 7 6 5 4 4 4 4 4 5 8 7 9 8 5 3
3 3 5 8 7 4 4 5 4 4 4 4 4 6 7 6 6 6 6 6 6 6 6 5 5 5 4 4 5 6 6 5 4 4 4 3 3 3 3 5 8 8 8 6
1 3 5 4 5 6 5 2 0 1 2 3 4 5 6 6 6 7 7 6 6 7 6 6 5 4 3 5 6 6 6 6 5 3 3 3 3 2 2 2 2 3 5 7
2 3 7 9 9 6 2 1 1 1 1 2 4 6 7 7 7 7 7 7 7 7 6 6 6 4 4 5 6 6 5 4 4 3 3 3 3 2 2 2 2 2 2 4
8 7 7 6 7 5 3 3 4 4 4 4 4 5 6 6 7 7 7 8 8 7 7 6 6 5 5 6 6 5 4 8 6 3 3 3 2 2 2 1 1 1 2 2
6 6 6 7 8 7 6 6 6 6 5 6 6 6 7 7 7 6 6 5 5 6 6 6 6 5 5 6 6 4 4 5 7 4 2 2 2 1 1 0 1 2 2 4
6 8 8 10 10 10 9 7 6 6 6 6 7 7 8 9 8 7 6 6 6 5 4 5 6 6 5 5 5 4 4 3 3 3 2 1 1 1 0 1 1 2 2 3
6 7 8 9 9 9 8 6 5 6 6 8 9 8 7 7 7 8 7 7 7 6 5 5 10 7 6 6 6 4 4 4 3 2 1 1 1 1 1 1 2 2 3 3
6 7 8 8 8 5 4 2 3 5 6 8 8 7 7 7 8 8 8 6 4 4 6 7 7 6 5 6 7 4 4 3 3 2 2 1 1 1 2 2 2 3 3 3
8 8 9 9 8 7 5 1 3 5 5 7 7 8 7 7 8 8 7 5 4 6 8 10 6 5 5 6 7 4 3 3 3 2 2 2 2 2 2 2 3 3 3 3
7 8 9 9 8 7 5 3 2 4 5 5 5 6 7 8 8 6 5 4 6 11 7 5 5 7 8 8 4 4 4 3 2 2 2 2 2 2 3 3 3 3 4 4
5 6 7 8 7 6 4 3 1 2 4 5 6 7 7 6 6 6 5 4 6 12 8 5 9 13 13 6 4 4 4 3 3 3 3 3 3 3 3 3 3 4 4 4
5 6 6 6 5 5 5 4 2 1 2 3 4 5 6 5 4 3 3 9 13 13 7 10 15 14 12 5 4 4 4 3 3 3 3 3 2 2 3 3 4 4 4 5
4 5 5 6 5 4 5 4 3 1 0 1 3 4 4 4 4 4 4 7 13 13 6 11 15 14 8 5 4 4 4 4 4 4 3 3 3 3 4 4 4 4 5 5
4 4 4 4 3 3 3 3 2 2 1 1 1 2 3 3 4 4 4 6 9 11 7 5 7 9 6 5 5 4 4 4 3 3 3 3 4 4 4 4 6 5 5 5
3 3 3 3 3 4 3 3 3 3 2 2 2 2 3 3 4 4 5 5 5 6 5 5 5 6 5 5 4 4 3 3 3 3 3 3 3 4 4 5 5 5 5 6
Wind_Direction
229 245 181 203 192 187 195 196 205 237 248 275 286 294 302 311 328 330 330 335 337 337 339 346 348 347 346 342 341 340 346 0 26 79 99 104 106 108 110 111 112 111 110 109
308 318 233 237 222 205 212 219 237 262 278 274 282 291 296 314 330 329 332 337 340 343 349 353 353 352 355 358 357 6 26 37 54 74 85 91 96 98 99 101 103 105 108 108
289 298 310 259 223 200 199 206 202 233 249 270 289 295 301 311 327 325 330 336 339 343 350 355 358 1 6 9 16 35 46 52 62 74 79 83 91 94 96 99 101 103 104 103
296 350 264 247 207 181 196 227 213 236 258 271 276 293 272 248 321 325 332 336 341 347 357 4 7 14 22 29 36 48 56 62 70 79 84 86 89 91 94 97 99 100 100 100
212 295 284 295 225 166 177 257 221 229 255 270 290 312 266 147 50 341 340 348 350 358 6 13 19 24 35 41 45 50 56 63 71 82 89 91 92 93 94 97 96 96 98 100
188 258 261 256 289 169 139 275 245 216 250 269 293 301 274 142 110 56 32 22 15 14 22 26 25 31 44 46 49 50 53 61 68 75 82 86 89 91 92 93 94 94 90 88
204 239 265 254 248 132 161 238 280 242 253 249 216 217 147 135 124 96 72 59 46 38 36 32 32 43 50 46 45 50 60 66 69 74 79 84 85 86 89 91 90 88 87 78
185 212 252 242 142 176 227 263 276 268 259 245 219 147 138 145 137 120 96 77 65 56 48 41 44 57 60 52 50 61 68 69 68 68 72 77 83 83 85 94 93 91 90 78
198 217 235 222 216 245 247 260 262 250 258 232 198 183 165 158 151 135 113 97 82 77 66 52 51 63 73 64 67 74 75 72 72 72 69 73 84 88 80 76 86 85 84 80
243 259 257 261 262 269 249 237 249 247 247 203 199 182 165 160 158 148 131 112 102 94 84 70 63 67 73 76 80 84 82 76 74 75 69 59 64 71 79 81 85 88 91 91
241 274 304 297 276 288 278 255 259 257 225 205 189 179 169 164 161 155 141 127 117 111 106 97 85 77 76 83 93 91 84 80 75 74 75 71 70 76 86 87 112 111 113 123
227 243 252 278 287 301 282 267 256 239 221 195 186 177 163 157 154 149 145 138 130 123 119 112 102 93 88 94 102 105 97 86 81 81 78 77 75 69 77 87 87 98 127 138
275 312 265 266 285 294 281 274 256 224 215 199 184 167 155 148 148 146 146 149 147 140 133 126 116 107 106 109 107 105 108 103 91 91 90 90 90 93 76 55 61 57 48 37
3 353 309 307 310 312 290 290 246 201 201 181 162 149 143 138 145 151 155 153 145 138 135 133 127 125 129 122 112 106 103 105 104 98 98 97 99 98 95 80 39 9 12 14
15 331 280 285 291 290 278 226 217 218 175 154 152 151 152 153 157 156 149 143 137 135 139 141 140 145 141 127 117 114 110 108 109 109 105 102 97 90 79 73 62 17 354 352
310 298 287 290 300 299 276 248 241 232 199 183 172 167 160 150 144 142 146 149 152 158 160 156 156 157 145 129 120 115 122 133 129 120 111 102 95 92 82 64 36 356 331 313
306 313 320 314 311 303 276 247 236 224 199 189 179 158 142 136 137 143 145 145 145 149 156 156 151 145 137 132 126 124 122 132 130 119 116 116 109 105 106 112 289 292 290 294
272 281 283 284 287 287 281 256 229 208 193 181 157 153 157 161 164 157 145 131 123 124 138 142 139 133 129 128 125 125 123 123 127 129 126 137 138 139 196 256 274 284 286 301
307 303 301 296 289 280 272 254 222 192 169 157 161 169 169 164 155 150 146 149 155 162 170 161 153 137 133 142 133 123 128 131 129 129 138 185 147 180 240 261 270 277 281 285
333 328 324 320 320 312 296 269 172 155 155 157 158 158 159 157 152 154 158 168 179 171 156 160 145 138 138 147 137 127 135 144 151 157 165 175 203 239 256 267 271 275 278 280
343 341 343 343 343 349 354 27 139 149 155 161 166 170 166 158 157 159 164 177 175 153 157 161 147 143 145 149 140 132 141 152 164 178 193 206 226 248 260 269 278 281 285 288
349 348 348 348 351 354 358 18 102 143 155 162 160 156 157 162 166 170 182 175 161 169 161 152 148 161 164 148 132 141 150 161 173 184 199 214 230 249 262 270 275 280 283 285
350 348 348 348 345 341 354 16 58 157 175 178 177 176 177 174 173 174 187 174 160 172 162 160 170 172 165 144 143 151 160 172 188 203 212 220 233 246 260 270 271 274 279 281
352 351 345 340 344 358 1 355 349 298 199 185 185 181 173 168 181 188 154 169 177 173 166 176 177 176 160 138 149 157 169 184 198 210 222 233 243 252 259 264 270 271 272 276
346 342 348 356 1 351 337 333 340 345 204 189 184 182 182 179 177 173 162 171 178 169 163 182 181 173 148 146 159 167 178 195 202 207 218 232 245 254 259 261 263 269 272 272
347 341 336 332 330 325 326 326 318 302 270 236 214 189 177 161 151 153 162 171 177 170 164 166 164 155 144 157 165 174 186 210 232 223 219 234 247 255 260 264 268 266 268 269
332 331 332 334 335 336 328 318 303 285 258 231 225 200 180 166 163 167 168 168 164 156 153 147 137 138 149 158 166 177 189 202 213 222 230 237 245 252 259 264 265 268 271 273